EW8328 Weather Reports


Display with metric or nautical units.
time (UTC)temp
F
wind
direction
speed
MPH
gust
MPH
rain 1hr
in
rain 24hr
in
rain mn
in
humidity
%
barometer
mb
20260506214357 43 68 2.0 3.0 0.00 0.00 0.00 79 1015.2
20260506213856 43 19 2.0 5.0 0.00 0.00 0.00 79 1015.2
20260506213356 43 97 1.0 3.0 0.00 0.00 0.00 79 1015.2
20260506212857 43 94 1.0 3.0 0.00 0.00 0.00 79 1015.2
20260506212356 43 33 1.0 3.0 0.00 0.00 0.00 78 1015.2
20260506211857 43 80 1.0 3.0 0.00 0.00 0.00 78 1015.2
20260506211356 43 9 1.0 3.0 0.00 0.00 0.00 78 1015.2
20260506210856 44 35 1.0 2.0 0.00 0.00 0.00 78 1015.3
20260506210356 44 10 1.0 3.0 0.00 0.00 0.00 77 1015.3
20260506205857 44 18 1.0 2.0 0.00 0.00 0.00 77 1015.3
20260506205356 44 50 1.0 3.0 0.00 0.00 0.00 77 1015.3
20260506204857 44 96 0.0 2.0 0.00 0.00 0.00 77 1015.3
20260506204357 44 124 0.0 5.0 0.00 0.00 0.00 77 1015.2
20260506203856 44 91 0.0 3.0 0.00 0.00 0.00 77 1015.2
20260506202857 44 28 1.0 3.0 0.00 0.00 0.00 76 1015.1
20260506202356 44 343 1.0 3.0 0.00 0.00 0.00 76 1015.1
20260506201857 45 6 1.0 3.0 0.00 0.00 0.00 75 1015.0
20260506200856 45 42 1.0 3.0 0.00 0.00 0.00 74 1014.9
20260506200356 45 71 1.0 2.0 0.00 0.00 0.00 73 1014.9
20260506195356 46 58 1.0 3.0 0.00 0.00 0.00 71 1014.8
20260506194857 47 88 2.0 7.0 0.00 0.00 0.00 71 1014.7
20260506193857 47 92 2.0 8.0 0.00 0.00 0.00 69 1014.7
20260506193356 47 95 3.0 8.0 0.00 0.00 0.00 69 1014.6
20260506192857 47 86 3.0 9.0 0.00 0.00 0.00 69 1014.6
20260506192356 48 94 1.0 6.0 0.00 0.00 0.00 69 1014.5
20260506191857 48 77 1.0 3.0 0.00 0.00 0.00 69 1014.5
20260506191356 48 86 0.0 2.0 0.00 0.00 0.00 68 1014.5
20260506190357 48 95 1.0 6.0 0.00 0.00 0.00 67 1014.4
20260506185857 48 97 2.0 6.0 0.00 0.00 0.00 66 1014.4
20260506185356 49 88 2.0 6.0 0.00 0.00 0.00 66 1014.5
20260506184857 49 97 3.0 7.0 0.00 0.00 0.00 66 1014.4
20260506184355 49 91 4.0 8.0 0.00 0.00 0.00 66 1014.4
20260506182856 49 89 2.0 8.0 0.00 0.00 0.00 64 1014.3
20260506182356 50 89 5.0 8.0 0.00 0.00 0.00 64 1014.4
20260506181856 50 86 4.0 9.0 0.00 0.00 0.00 64 1014.3
20260506180356 50 96 3.0 8.0 0.00 0.00 0.00 63 1014.2
20260506175858 50 98 5.0 10.0 0.00 0.00 0.00 62 1014.3
20260506175356 51 97 2.0 6.0 0.00 0.00 0.00 62 1014.3
20260506174857 51 97 3.0 9.0 0.00 0.00 0.00 63 1014.2
20260506173856 51 92 5.0 9.0 0.00 0.00 0.00 62 1014.2
20260506173356 51 84 5.0 12.0 0.00 0.00 0.00 62 1014.1
20260506172857 52 92 2.0 7.0 0.00 0.00 0.00 62 1014.1
20260506172357 52 97 4.0 10.0 0.00 0.00 0.00 62 1014.2
20260506171857 51 90 3.0 8.0 0.00 0.00 0.00 62 1014.2
20260506170857 51 88 3.0 8.0 0.00 0.00 0.00 62 1014.2
20260506170356 51 102 2.0 6.0 0.00 0.00 0.00 62 1014.2
20260506165856 51 87 2.0 5.0 0.00 0.00 0.00 62 1014.3
20260506165356 50 90 1.0 6.0 0.00 0.00 0.00 62 1014.3
20260506164356 50 99 3.0 7.0 0.00 0.00 0.00 59 1014.4
20260506163856 50 102 2.0 7.0 0.00 0.00 0.00 59 1014.4
20260506163356 50 93 3.0 6.0 0.00 0.00 0.00 57 1014.4
20260506162856 50 88 2.0 6.0 0.00 0.00 0.00 58 1014.4
20260506162355 50 88 1.0 3.0 0.00 0.00 0.00 58 1014.5
20260506161356 51 101 2.0 5.0 0.00 0.00 0.00 57 1014.5
20260506160356 51 90 2.0 6.0 0.00 0.00 0.00 58 1014.5
20260506155856 51 93 4.0 8.0 0.00 0.00 0.00 58 1014.5
20260506155356 51 92 3.0 6.0 0.00 0.00 0.00 57 1014.4
20260506154856 51 92 3.0 6.0 0.00 0.00 0.00 57 1014.4
20260506154356 51 94 3.0 5.0 0.00 0.00 0.00 55 1014.4
20260506153856 51 96 2.0 7.0 0.00 0.00 0.00 56 1014.4
20260506151856 51 97 3.0 7.0 0.00 0.00 0.00 54 1014.5
20260506151355 51 91 1.0 5.0 0.00 0.00 0.00 56 1014.6
20260506150857 51 99 3.0 5.0 0.00 0.00 0.00 54 1014.6
20260506145856 51 96 1.0 5.0 0.00 0.00 0.00 56 1014.6
20260506145356 51 95 3.0 6.0 0.00 0.00 0.00 56 1014.6
20260506144357 51 92 3.0 8.0 0.00 0.00 0.00 54 1014.7
20260506143356 51 40 0.0 2.0 0.00 0.00 0.00 55 1014.6
20260506142856 51 61 1.0 3.0 0.00 0.00 0.00 56 1014.6
20260506142356 51 61 1.0 5.0 0.00 0.00 0.00 56 1014.6
20260506141856 51 113 1.0 6.0 0.00 0.00 0.00 54 1014.6
20260506141356 52 88 2.0 5.0 0.00 0.00 0.00 54 1014.7
20260506140856 52 359 2.0 8.0 0.00 0.00 0.00 55 1014.7
20260506140356 52 21 3.0 7.0 0.00 0.00 0.00 54 1014.7
20260506135856 52 59 3.0 6.0 0.00 0.00 0.00 54 1014.7
20260506135357 52 80 4.0 8.0 0.00 0.00 0.00 53 1014.7
20260506134856 51 137 2.0 5.0 0.00 0.00 0.00 51 1014.7
20260506134356 51 78 2.0 6.0 0.00 0.00 0.00 52 1014.7
20260506133356 51 84 2.0 9.0 0.00 0.00 0.00 55 1014.8
20260506132856 51 93 3.0 7.0 0.00 0.00 0.00 56 1014.8
20260506132356 51 82 2.0 5.0 0.00 0.00 0.00 56 1014.8
20260506131856 51 95 3.0 8.0 0.00 0.00 0.00 56 1014.8
20260506130357 52 74 2.0 8.0 0.00 0.00 0.00 55 1014.9
20260506125856 53 110 5.0 9.0 0.00 0.00 0.00 52 1014.8
20260506124856 52 273 1.0 6.0 0.00 0.00 0.00 52 1014.7
20260506124356 52 115 3.0 6.0 0.00 0.00 0.00 50 1014.8
20260506123856 52 89 3.0 6.0 0.00 0.00 0.00 50 1014.8
20260506123356 53 47 2.0 5.0 0.00 0.00 0.00 52 1014.8
20260506122856 53 104 2.0 6.0 0.00 0.00 0.00 50 1014.8
20260506122356 53 351 2.0 3.0 0.00 0.00 0.00 49 1014.7
20260506121856 53 26 3.0 5.0 0.00 0.00 0.00 50 1014.9
20260506121356 52 358 1.0 5.0 0.00 0.00 0.00 54 1014.9
20260506120356 52 84 3.0 6.0 0.00 0.00 0.00 53 1015.0
20260506115855 51 310 3.0 7.0 0.00 0.00 0.00 53 1015.0
20260506115356 51 16 2.0 5.0 0.00 0.00 0.00 51 1015.0
20260506114856 52 39 3.0 7.0 0.00 0.00 0.00 54 1015.0
20260506113856 52 9 2.0 7.0 0.00 0.00 0.00 53 1015.1
20260506113356 53 94 3.0 7.0 0.00 0.00 0.00 54 1015.1
20260506112355 51 87 2.0 5.0 0.00 0.00 0.00 54 1015.2
20260506111856 51 351 1.0 8.0 0.00 0.00 0.00 56 1015.2
20260506111356 51 13 5.0 9.0 0.00 0.00 0.00 59 1015.2
20260506110856 50 4 3.0 9.0 0.00 0.00 0.00 58 1015.2
20260506110356 50 350 1.0 5.0 0.00 0.00 0.00 60 1015.2
20260506105856 50 30 1.0 5.0 0.00 0.00 0.00 59 1015.2
20260506105355 50 65 2.0 5.0 0.00 0.00 0.00 60 1015.2
20260506104856 50 350 2.0 6.0 0.00 0.00 0.00 58 1015.2
20260506104356 51 345 2.0 12.0 0.00 0.00 0.00 59 1015.3
20260506103856 52 92 3.0 7.0 0.00 0.00 0.00 57 1015.4
20260506103357 51 74 3.0 9.0 0.00 0.00 0.00 61 1015.3
20260506102856 51 80 5.0 9.0 0.00 0.00 0.00 62 1015.3
20260506102357 50 5 3.0 10.0 0.00 0.00 0.00 62 1015.3
20260506101856 51 356 3.0 8.0 0.00 0.00 0.00 60 1015.3
20260506101356 51 25 2.0 7.0 0.00 0.00 0.00 63 1015.3
20260506100855 50 93 4.0 7.0 0.00 0.00 0.00 63 1015.3
20260506095856 50 100 2.0 8.0 0.00 0.00 0.00 64 1015.3
20260506095355 49 79 3.0 7.0 0.00 0.00 0.00 64 1015.3
20260506094857 50 20 3.0 7.0 0.00 0.00 0.00 64 1015.4
20260506093855 49 113 4.0 10.0 0.00 0.00 0.00 63 1015.4
20260506093355 49 41 2.0 5.0 0.00 0.00 0.00 66 1015.4
20260506092856 48 229 1.0 3.0 0.00 0.00 0.00 67 1015.4
20260506091357 48 103 3.0 9.0 0.00 0.00 0.00 66 1015.5
20260506090856 47 81 2.0 7.0 0.00 0.00 0.00 71 1015.5
20260506090356 46 78 2.0 8.0 0.00 0.00 0.00 71 1015.5
20260506085857 46 17 4.0 10.0 0.00 0.00 0.00 72 1015.5
20260506085356 46 12 3.0 8.0 0.00 0.00 0.00 71 1015.5
20260506084856 46 27 3.0 8.0 0.00 0.00 0.00 72 1015.5
20260506084356 46 12 2.0 8.0 0.00 0.00 0.00 73 1015.5
20260506083355 46 46 2.0 7.0 0.00 0.00 0.00 71 1015.5
20260506082856 45 40 2.0 8.0 0.00 0.00 0.00 73 1015.5
20260506082356 45 58 3.0 8.0 0.00 0.00 0.00 73 1015.6
20260506081856 44 23 3.0 7.0 0.00 0.00 0.00 74 1015.6
20260506081356 44 2 2.0 7.0 0.00 0.00 0.00 74 1015.6
20260506080857 44 39 3.0 10.0 0.00 0.00 0.00 74 1015.6
20260506080356 44 30 3.0 10.0 0.00 0.00 0.00 75 1015.5
20260506073355 43 20 2.0 8.0 0.00 0.00 0.00 75 1015.4
20260506072355 43 94 2.0 8.0 0.00 0.00 0.00 76 1015.4
20260506071856 43 102 2.0 6.0 0.00 0.00 0.00 76 1015.4
20260506071356 43 65 3.0 8.0 0.00 0.00 0.00 76 1015.4
20260506070856 43 14 3.0 7.0 0.00 0.00 0.00 77 1015.4
20260506070356 42 64 1.0 5.0 0.00 0.00 0.00 78 1015.4
20260506062356 39 173 0.0 1.0 0.00 0.00 0.00 81 1015.2
20260506061856 39 173 0.0 2.0 0.00 0.00 0.00 81 1015.1
20260506061356 39 173 1.0 3.0 0.00 0.00 0.00 82 1015.1
20260506060856 38 138 1.0 2.0 0.00 0.00 0.00 82 1015.1
20260506060355 38 161 1.0 3.0 0.00 0.00 0.00 82 1015.0
20260506051355 37 34 1.0 3.0 0.00 0.00 0.00 84 1015.1
20260506050355 36 14 1.0 3.0 0.00 0.00 0.00 85 1015.1
20260506044356 36 336 0.0 2.0 0.00 0.00 0.00 83 1015.1
20260506043855 36 336 0.0 2.0 0.00 0.00 0.00 83 1015.1
20260506043356 36 289 1.0 2.0 0.00 0.00 0.00 83 1015.1
20260506042355 36 263 0.0 2.0 0.00 0.00 0.00 84 1015.1
20260506041856 36 265 0.0 2.0 0.00 0.00 0.00 84 1015.0
20260506040855 36 265 0.0 1.0 0.00 0.00 0.00 84 1015.1
20260506040355 35 265 0.0 2.0 0.00 0.00 0.00 84 1015.1
20260506035856 35 265 0.0 2.0 0.00 0.00 0.00 84 1015.1
20260506035355 35 265 0.0 2.0 0.00 0.00 0.00 84 1015.1
20260506034856 36 265 0.0 1.0 0.00 0.00 0.00 84 1015.1
20260506034355 36 265 0.0 2.0 0.00 0.00 0.00 84 1015.0
20260506033855 36 265 0.0 2.0 0.00 0.00 0.00 85 1015.1
20260506033355 36 270 1.0 3.0 0.00 0.00 0.00 84 1015.1
20260506032856 36 328 0.0 1.0 0.00 0.00 0.00 84 1015.2
20260506031856 36 328 0.0 1.0 0.00 0.00 0.00 84 1015.3
20260506031355 37 328 0.0 2.0 0.00 0.00 0.00 84 1015.3
20260506030856 37 328 0.0 2.0 0.00 0.00 0.00 84 1015.3
20260506030355 37 328 0.0 2.0 0.00 0.00 0.00 85 1015.3
20260506025857 37 328 0.0 2.0 0.00 0.00 0.00 85 1015.3
20260506025356 37 328 0.0 1.0 0.00 0.00 0.00 85 1015.3
20260506024356 37 328 0.0 2.0 0.00 0.00 0.00 85 1015.3
20260506023855 37 328 0.0 0.0 0.00 0.00 0.00 85 1015.3
20260506022856 37 328 0.0 2.0 0.00 0.00 0.00 85 1015.3
20260506022355 37 328 0.0 2.0 0.00 0.00 0.00 85 1015.3
20260506021856 38 328 0.0 3.0 0.00 0.00 0.00 85 1015.3
20260506021355 38 328 0.0 2.0 0.00 0.00 0.00 85 1015.3
20260506020855 38 328 0.0 2.0 0.00 0.00 0.00 86 1015.3
20260506020356 39 328 1.0 2.0 0.00 0.00 0.00 84 1015.2
20260506015855 39 328 1.0 2.0 0.00 0.00 0.00 85 1015.3
20260506015355 39 328 0.0 2.0 0.00 0.00 0.00 85 1015.3
20260506014855 39 2 1.0 3.0 0.00 0.00 0.00 85 1015.4
20260506014355 39 81 1.0 2.0 0.00 0.00 0.00 85 1015.4
20260506013855 39 81 1.0 2.0 0.00 0.00 0.00 85 1015.4
20260506013355 39 81 1.0 3.0 0.00 0.00 0.00 84 1015.4
20260506012856 40 81 0.0 2.0 0.00 0.00 0.00 84 1015.4
20260506012355 40 81 2.0 3.0 0.00 0.00 0.00 84 1015.6
20260506011855 40 81 0.0 2.0 0.00 0.00 0.00 84 1015.5
20260506011355 40 81 0.0 0.0 0.00 0.00 0.00 83 1015.6
20260506010355 41 81 0.0 1.0 0.00 0.00 0.00 83 1015.6
20260506005856 41 81 0.0 1.0 0.00 0.00 0.00 83 1015.5
20260506005355 42 81 0.0 2.0 0.00 0.00 0.00 83 1015.5
20260506004354 42 81 1.0 5.0 0.00 0.00 0.00 83 1015.6
20260506003856 42 81 0.0 2.0 0.00 0.00 0.00 82 1015.6
20260506003356 42 81 2.0 3.0 0.00 0.00 0.00 82 1015.6
20260506002856 42 81 0.0 3.0 0.00 0.00 0.00 83 1015.6
20260506001855 43 81 1.0 2.0 0.00 0.00 0.00 83 1015.6
20260506001355 43 81 1.0 2.0 0.00 0.00 0.00 83 1015.6
20260506000855 43 81 2.0 16.0 0.00 0.00 0.00 82 1015.5
20260506000355 43 81 1.0 3.0 0.00 0.00 0.00 82 1015.6
20260505235355 43 81 1.0 3.0 0.00 0.00 0.00 82 1015.6
20260505234355 43 81 1.0 2.0 0.00 0.00 0.00 81 1015.7
20260505233855 43 81 1.0 3.0 0.00 0.00 0.00 81 1015.6
20260505233355 43 81 1.0 3.0 0.00 0.00 0.00 81 1015.5
20260505232855 43 81 2.0 7.0 0.00 0.00 0.00 80 1015.4
20260505232356 43 75 2.0 7.0 0.00 0.00 0.00 80 1015.5
20260505231855 43 12 2.0 8.0 0.00 0.00 0.00 80 1015.5
20260505231355 43 84 5.0 12.0 0.00 0.00 0.00 80 1015.5
20260505230935 43 328 2.0 9.0 0.00 0.00 0.00 80 1015.5
20260505230356 43 52 3.0 10.0 0.00 0.00 0.00 79 1015.5
20260505225856 43 88 2.0 9.0 0.00 0.00 0.00 79 1015.4
20260505225355 43 233 2.0 12.0 0.00 0.00 0.00 79 1015.4
20260505224855 43 111 2.0 7.0 0.00 0.00 0.00 79 1015.5
20260505224355 43 78 1.0 7.0 0.00 0.00 0.00 79 1015.5
20260505223856 43 16 2.0 6.0 0.00 0.00 0.00 79 1015.4
20260505223355 43 88 2.0 5.0 0.00 0.00 0.00 79 1015.5
20260505222855 43 187 1.0 8.0 0.00 0.00 0.00 79 1015.6
20260505221355 44 2 3.0 12.0 0.00 0.00 0.00 80 1015.5
20260505220355 44 56 3.0 12.0 0.00 0.00 0.00 79 1015.4
20260505215855 44 48 2.0 15.0 0.00 0.00 0.00 79 1015.4
20260505215355 44 12 3.0 9.0 0.00 0.00 0.00 80 1015.5
20260505214855 44 53 3.0 8.0 0.00 0.00 0.00 80 1015.4